Hill City, KS

7:11 PM CST on December 07, 2016 (GMT -0600)
Hill City Municipal

Weather History for KHLC - November, 2014

Change the Weather History Date:

Monday, November 17, 2014

  Actual Average Record
Temperature  
Mean Temperature 17 °F 40 °F  
Max Temperature 31 °F 53 °F 82 °F (1943)
Min Temperature 3 °F 27 °F 0 °F (1959)
Degree Days  
Heating Degree Days 48    
Moisture  
Dew Point 4 °F    
Average Humidity 61    
Maximum Humidity 76    
Minimum Humidity 35    
Precipitation  
Precipitation 0.00 in 0.04 in 0.45 in (2015)
Month to date precipitation 0.01 0.63  
Year to date precipitation 21.44 21.91  
Sea Level Pressure  
Sea Level Pressure 30.39 in    
Wind  
Wind Speed 9 mph (WNW)    
Max Wind Speed 22 mph    
Max Gust Speed 30 mph    
Visibility 10 miles    
Events      
T = Trace of Precipitation, MM = Missing Value Source: NWS Daily Summary

Daily Weather History Graph

Daily Weather History Graph

Search for Another Location

Airport or City:

Trip Planner

Search our weather history database for the weather conditions in past years. The results will help you decide how hot, cold, wet, or windy it might be!

Date:

Astronomy

Nov. 17, 2014 Rise Set
Actual Time 7:25 AM CST 5:22 PM CST
Civil Twilight 6:56 AM CST 5:51 PM CST
Nautical Twilight 6:23 AM CST 6:24 PM CST
Astronomical Twilight 5:52 AM CST 6:56 PM CST
Moon 2:30 AM CST (11/17) 2:46 PM CST (11/17)
Length of Visible Light 10h 55m
Length of Day
9h 57m
Waning Crescent, 22% of the Moon is Illuminated
Nov 17
Waning Crescent
Nov 22
New
Nov 29
First Quarter
Dec 6
Full
Dec 14
Last Quarter

Hourly Weather History & Observations

Time (CST) Temp. Windchill Dew Point Humidity Pressure Visibility Wind Dir Wind Speed Gust Speed Precip Events Conditions
12:53 AM 17.1 °F 7.6 °F 8.1 °F 68% 30.35 in 10.0 mi WNW 6.9 mph - N/A   Mostly Cloudy
1:53 AM 14.0 °F 2.9 °F 6.1 °F 71% 30.35 in 10.0 mi WNW 8.1 mph - N/A   Clear
2:53 AM 10.9 °F 0.2 °F 3.9 °F 73% 30.36 in 10.0 mi West 6.9 mph - N/A   Clear
3:53 AM 10.9 °F -0.8 °F 3.9 °F 73% 30.36 in 10.0 mi WNW 8.1 mph - N/A   Clear
4:53 AM 12.0 °F -0.4 °F 3.9 °F 70% 30.36 in 10.0 mi WNW 9.2 mph - N/A   Clear
5:53 AM 10.0 °F 0.4 °F 3.9 °F 76% 30.37 in 10.0 mi NW 5.8 mph - N/A   Clear
6:53 AM 8.1 °F -3.2 °F 1.9 °F 76% 30.38 in 10.0 mi West 6.9 mph - N/A   Clear
7:53 AM 8.1 °F -3.2 °F 1.9 °F 76% 30.42 in 10.0 mi West 6.9 mph - N/A   Clear
8:53 AM 16.0 °F 5.3 °F 7.0 °F 68% 30.43 in 10.0 mi WNW 8.1 mph - N/A   Mostly Cloudy
9:53 AM 21.9 °F 12.5 °F 10.9 °F 63% 30.42 in 10.0 mi WNW 8.1 mph - N/A   Scattered Clouds
10:53 AM 24.1 °F 12.5 °F 8.1 °F 51% 30.41 in 10.0 mi NW 12.7 mph 23.0 mph N/A   Overcast
11:53 AM 27.0 °F 13.5 °F 7.0 °F 43% 30.40 in 10.0 mi NW 19.6 mph 29.9 mph N/A   Mostly Cloudy
12:53 PM 28.0 °F 14.6 °F 6.1 °F 39% 30.37 in 10.0 mi NW 20.7 mph 28.8 mph N/A   Scattered Clouds
1:53 PM 28.9 °F 16.9 °F 6.1 °F 38% 30.36 in 10.0 mi NNW 17.3 mph - N/A   Partly Cloudy
2:53 PM 28.9 °F 15.4 °F 3.9 °F 35% 30.35 in 10.0 mi NNW 21.9 mph 29.9 mph N/A   Clear
3:53 PM 28.9 °F 16.5 °F 3.9 °F 35% 30.36 in 10.0 mi North 18.4 mph - N/A   Clear
4:53 PM 27.0 °F 16.1 °F 3.9 °F 37% 30.36 in 10.0 mi NNW 12.7 mph - N/A   Clear
5:53 PM 19.0 °F 13.9 °F 3.0 °F 50% 30.38 in 10.0 mi NW 3.5 mph - N/A   Clear
6:53 PM 14.0 °F - 1.9 °F 59% 30.40 in 10.0 mi Calm Calm - N/A   Clear
7:53 PM 9.0 °F 2.4 °F -0.0 °F 67% 30.42 in 10.0 mi WNW 3.5 mph - N/A   Clear
8:53 PM 7.0 °F -1.7 °F -0.9 °F 70% 30.42 in 10.0 mi North 4.6 mph - N/A   Clear
9:53 PM 7.0 °F -1.7 °F -0.9 °F 70% 30.41 in 10.0 mi WSW 4.6 mph - N/A   Clear
10:53 PM 5.0 °F - -0.9 °F 76% 30.41 in 10.0 mi Calm Calm - N/A   Clear
11:53 PM 3.9 °F -3.4 °F -2.0 °F 76% 30.40 in 10.0 mi SW 3.5 mph - N/A   Clear